Vertical_Velocity
-2 1 4 -1 -15 -7 0 -1 1 -0 -1 2 1 -2 -3 3 1 -2 1 -0 -2 -1 -3 -1 0 2 2 3 -3 7 2 -1 -3 2 -2 -3 0 -2 -4 -3 1 3 -2 1 1 -2 -1 -1 -0
-0 -0 5 -0 -10 -3 -1 -0 1 2 0 2 -4 1 -4 2 1 -1 -0 -4 -2 2 -0 -0 -0 0 -2 5 3 2 1 -0 -0 2 -2 -2 -1 -0 -3 -0 -1 -1 2 0 0 -1 -2 -2 0
3 1 3 -4 -1 -2 -2 -0 1 2 4 1 -1 -0 2 0 1 1 -1 -1 3 1 -1 3 3 0 -0 -0 1 3 2 -2 -2 5 -4 0 2 2 -1 -3 0 -2 1 -0 -0 -2 1 -2 1
2 8 -2 -7 1 2 -2 -0 -0 1 3 -1 -0 -2 0 5 -1 1 -2 1 -0 -1 3 2 -1 -1 -2 4 -0 5 4 -4 1 0 -2 1 -1 4 -1 5 6 -1 -2 -0 -0 -1 -1 -0 0
3 1 -3 -1 1 1 1 0 0 0 1 5 -4 3 1 -1 2 -0 -2 -3 -2 -1 -0 0 6 1 4 -1 2 0 4 -4 2 2 2 3 -3 6 -4 2 -2 0 0 -2 0 0 -4 -0 -0
-2 -1 -4 -0 1 1 0 1 -3 -1 3 7 -8 -1 2 4 5 0 0 1 2 4 2 1 4 2 2 1 4 4 12 6 7 2 -1 1 -2 10 -9 3 1 -2 0 -1 -1 -1 -1 1 -1
-5 -3 0 0 1 0 0 2 -2 0 -0 1 -2 -2 2 1 4 1 -0 1 -0 -1 0 -0 -2 -1 -0 7 6 25 15 -11 -3 -17 5 1 -1 5 2 3 3 1 -1 -2 0 -1 -1 -0 1
-2 -5 -1 0 -1 2 1 -0 -5 -4 4 1 -2 -2 -2 -3 -1 0 -2 -1 -2 -2 -2 -1 -1 -2 1 14 1 20 -11 -2 -2 4 6 5 1 1 2 3 3 2 -0 -2 -0 -0 -1 -2 -0
-1 -6 -0 0 -1 0 3 -2 3 3 -6 3 4 -3 -1 -3 -1 -2 -2 -2 -3 -1 -1 3 0 -4 1 13 0 -9 -3 3 2 -7 4 1 -0 -1 0 3 1 2 -0 2 2 -0 1 -0 0
-5 -3 -3 -3 -1 -1 0 -2 -2 -3 2 2 -1 3 0 -3 -3 -3 -2 0 -0 1 0 2 0 -3 1 7 13 14 10 -7 -2 2 5 -0 2 -2 1 -1 -1 1 1 1 0 0 -0 1 1
1 -1 0 2 2 -4 -1 -1 -1 -3 1 -1 -13 -5 -2 -2 -3 -2 -1 -0 0 -0 2 2 2 1 -4 3 -1 -1 -4 0 2 -2 2 -1 -14 0 1 4 -1 2 2 2 3 2 3 4 2
-3 0 0 4 4 -3 -1 -0 0 -0 -1 -3 -1 -2 -4 -3 -3 -1 -2 -1 -3 -2 0 -1 0 0 -3 -3 1 -0 -3 -3 1 -0 -6 -8 -10 0 2 2 0 0 -0 1 1 -1 -1 1 2
-1 0 1 1 2 2 -0 1 -2 -1 2 0 2 1 -2 -1 -1 -1 0 -0 -1 -2 -1 -0 -0 -2 2 -2 -2 -4 -0 -2 -10 -20 -3 1 4 2 3 1 1 -0 -1 -0 0 0 1 -2 -1
2 1 3 7 2 1 -6 1 -3 3 0 0 -1 -2 -2 -4 -4 0 -2 -2 -3 -2 1 -1 1 -2 -1 1 3 -4 -3 -3 -3 -2 1 -4 4 4 2 0 0 -3 -2 1 0 -0 0 -2 -2
1 -9 -1 1 3 2 -6 -2 -0 -0 1 -0 -1 1 -1 -3 -1 -4 2 -0 1 -2 -0 -0 -0 0 -1 1 3 3 -2 -4 -7 -4 -5 -1 0 -1 -1 -3 -1 -2 -3 -1 -1 0 -4 -4 1
-4 -6 -2 -2 -0 3 -6 -3 -1 -1 0 0 -0 -0 1 -3 -4 1 2 3 -0 -2 -3 2 -1 -2 0 -1 -3 1 3 4 2 4 2 -3 -5 -2 -2 0 -0 -1 -2 -2 -1 -1 -1 -2 -2
-3 -1 -0 2 0 -1 -5 -2 -5 2 1 -1 -1 1 -2 -0 1 -1 5 -1 1 2 -3 -0 -0 -2 1 2 -1 0 -0 0 2 2 -2 1 1 0 0 -1 -1 2 3 -1 -1 1 -1 -2 0
-2 -0 0 -1 -2 1 0 -1 -1 -1 2 -3 -1 -2 -1 3 -3 -0 3 -2 0 4 2 2 3 2 1 4 2 2 2 2 1 1 0 -1 -1 0 -1 -0 -1 -1 -1 -1 0 0 3 -1 2
-2 -2 -1 -0 -0 -5 -1 -0 -2 -1 3 0 -1 -2 -2 -6 6 6 3 -1 2 1 2 -2 2 2 0 -1 -3 -2 -8 1 -2 -1 3 1 -0 -1 0 0 3 1 0 7 -2 2 5 3 5
-0 -1 1 1 1 -5 0 -1 -2 0 -2 -3 -1 -3 -2 -0 -3 1 1 4 -8 1 1 -4 -0 3 1 3 -2 4 0 -2 6 2 -5 -3 -2 1 4 -1 -3 5 2 9 4 0 1 1 -2
0 -2 -0 -5 2 -2 -2 -5 -0 -2 1 -2 -0 1 2 -2 -5 -2 -3 3 3 -6 4 -2 1 -5 4 5 -0 2 3 1 1 -2 0 4 2 1 1 2 2 6 8 5 6 5 4 3 4
-0 -1 -1 -1 -3 -3 -3 -6 -2 -1 -1 0 -0 -1 -5 -3 -3 1 -2 -2 -1 -2 4 -0 -14 1 1 3 3 1 2 3 7 4 3 1 -1 1 1 2 1 1 1 1 1 -0 3 2 3
2 -4 -2 -1 -1 -4 -3 -6 -12 -0 1 -3 -4 -3 -2 -1 -4 -2 -8 -2 8 1 -3 -5 1 -7 -2 0 3 4 3 2 2 -0 -2 -5 -3 -2 0 -3 -5 -3 -4 -1 -1 -2 -4 -4 -3
-1 -4 -3 -2 -2 -4 -3 -4 -7 -2 -7 -1 -2 -5 -1 -5 -3 -3 3 5 -2 2 2 -3 0 -2 1 1 3 1 -2 2 -0 2 -1 3 6 1 -1 -2 -3 -3 -4 -4 1 -1 -2 -1 -1
-2 -5 -4 -6 -5 -5 0 -2 -13 -2 -2 -4 -3 -4 -7 4 -0 -2 -2 -4 2 -3 1 0 -2 -1 3 2 -3 -4 -1 1 0 3 1 -2 -3 -3 6 5 5 1 0 -0 -0 0 1 0 -2
-0 -5 -8 -5 -3 -3 -1 -3 -13 -3 -0 -1 4 4 -4 -0 1 -4 -2 -3 1 3 1 3 -2 -2 1 1 1 1 -2 -6 -5 -2 0 -1 -1 2 5 1 -6 -8 -6 -6 -8 -9 -6 0 2
-3 1 -5 -6 -0 -3 -3 -7 -9 0 2 1 -0 -1 -5 0 -0 -4 1 -1 -0 1 -1 -0 2 3 -1 -0 3 3 4 2 2 3 3 2 3 6 1 -0 -1 -4 -5 1 7 3 -3 -5 -6
-10 -7 -8 -4 -4 0 -3 -1 -5 0 -0 0 1 -3 -2 0 -2 -1 -3 -1 -1 -1 2 0 2 -0 6 4 3 3 5 5 2 2 -2 -1 7 -0 2 -2 -3 -3 1 -1 4 6 12 3 3
-1 0 -3 -8 -4 -6 -2 -8 -5 -3 -2 -2 -2 -2 1 2 2 -1 1 2 4 2 2 4 4 5 4 5 7 2 2 4 1 -1 -2 5 -7 -1 -1 7 -2 5 3 1 2 7 -1 2 6
-2 -3 -3 -7 -2 -1 -4 -12 -0 -1 -1 -1 -1 0 -0 2 1 1 1 0 1 1 2 0 1 1 0 2 -1 -1 0 0 -1 -3 -1 0 0 -0 3 6 9 4 5 6 5 -1 5 2 -6
Height
1483 1484 1483 1483 1497 1500 1511 1506 1497 1498 1500 1500 1502 1504 1508 1511 1512 1521 1514 1514 1515 1515 1515 1515 1515 1517 1519 1520 1522 1524 1526 1528 1531 1532 1535 1539 1542 1544 1546 1548 1550 1551 1552 1554 1555 1556 1558 1559 1560
1483 1484 1484 1484 1507 1523 1520 1503 1505 1502 1502 1502 1504 1507 1508 1515 1514 1514 1516 1516 1517 1516 1516 1516 1516 1517 1520 1521 1523 1526 1528 1530 1533 1534 1538 1542 1544 1547 1549 1551 1552 1553 1554 1556 1557 1559 1560 1562 1563
1485 1486 1488 1493 1507 1522 1521 1506 1503 1503 1503 1502 1506 1509 1512 1516 1516 1517 1518 1519 1518 1517 1517 1516 1515 1516 1519 1523 1525 1528 1530 1532 1536 1538 1541 1544 1546 1549 1551 1553 1554 1555 1556 1558 1559 1561 1563 1565 1566
1488 1490 1490 1503 1509 1505 1506 1506 1505 1504 1505 1505 1508 1513 1517 1520 1519 1519 1520 1520 1520 1520 1518 1516 1516 1516 1520 1524 1527 1530 1532 1535 1539 1541 1544 1546 1549 1551 1553 1555 1555 1557 1559 1560 1562 1564 1566 1567 1568
1488 1488 1501 1507 1508 1505 1505 1506 1506 1507 1509 1510 1511 1518 1520 1521 1521 1522 1523 1524 1523 1522 1520 1520 1520 1521 1523 1525 1528 1532 1535 1537 1541 1544 1546 1548 1551 1553 1553 1556 1558 1559 1561 1563 1565 1566 1568 1569 1570
1489 1492 1513 1517 1512 1508 1509 1509 1510 1510 1513 1515 1516 1519 1524 1524 1525 1525 1526 1527 1525 1524 1523 1523 1523 1525 1525 1527 1530 1532 1535 1539 1543 1545 1549 1551 1553 1555 1555 1558 1560 1562 1564 1566 1567 1569 1570 1571 1572
1490 1499 1513 1513 1515 1511 1511 1512 1513 1512 1515 1518 1520 1523 1526 1526 1528 1528 1529 1529 1528 1527 1527 1527 1527 1527 1527 1530 1532 1533 1524 1536 1545 1546 1552 1554 1556 1558 1559 1560 1563 1565 1566 1568 1569 1571 1572 1573 1574
1490 1497 1508 1511 1517 1516 1511 1513 1515 1516 1518 1520 1521 1525 1528 1527 1529 1530 1531 1531 1531 1532 1532 1531 1531 1530 1530 1533 1535 1502 1531 1540 1548 1553 1555 1556 1558 1560 1561 1564 1565 1567 1569 1570 1572 1573 1574 1575 1576
1491 1507 1517 1511 1513 1513 1511 1513 1516 1517 1518 1521 1522 1523 1526 1528 1531 1532 1532 1534 1534 1535 1536 1535 1534 1533 1534 1536 1539 1537 1541 1546 1551 1553 1556 1558 1559 1561 1564 1566 1568 1570 1571 1572 1574 1575 1576 1577 1578
1493 1509 1508 1500 1502 1506 1510 1514 1515 1519 1521 1523 1524 1527 1529 1531 1533 1534 1534 1535 1536 1537 1539 1538 1538 1538 1538 1539 1542 1544 1546 1550 1553 1557 1558 1560 1561 1563 1567 1568 1570 1572 1573 1574 1575 1576 1577 1578 1579
1495 1504 1499 1498 1500 1506 1512 1516 1517 1520 1523 1523 1524 1527 1530 1532 1534 1535 1537 1538 1539 1540 1541 1541 1542 1542 1542 1543 1545 1548 1550 1554 1556 1557 1560 1563 1564 1567 1570 1571 1571 1573 1574 1576 1577 1578 1579 1580 1580
1497 1498 1498 1501 1502 1508 1512 1515 1518 1519 1521 1523 1525 1528 1531 1533 1535 1537 1539 1540 1541 1542 1543 1544 1545 1546 1547 1546 1548 1551 1554 1556 1559 1561 1563 1566 1567 1570 1572 1573 1574 1574 1576 1577 1578 1579 1580 1580 1580
1496 1497 1497 1501 1505 1509 1513 1516 1519 1522 1522 1525 1528 1531 1533 1535 1538 1539 1541 1542 1543 1544 1545 1546 1548 1549 1551 1552 1552 1554 1557 1558 1559 1560 1566 1568 1571 1573 1574 1575 1576 1577 1578 1579 1579 1579 1579 1579 1579
1498 1497 1501 1505 1509 1514 1514 1520 1521 1524 1524 1526 1529 1531 1534 1536 1537 1540 1541 1542 1544 1546 1547 1549 1550 1552 1554 1556 1557 1559 1560 1562 1565 1567 1570 1571 1572 1574 1575 1576 1577 1578 1578 1579 1579 1578 1578 1578 1577
1501 1505 1507 1512 1513 1516 1518 1524 1523 1524 1526 1527 1530 1531 1534 1535 1538 1538 1540 1542 1544 1546 1548 1550 1552 1554 1556 1558 1560 1562 1563 1565 1567 1570 1572 1573 1574 1574 1576 1577 1577 1578 1578 1578 1578 1578 1577 1576 1575
1508 1512 1524 1516 1514 1519 1520 1534 1524 1526 1527 1529 1531 1533 1534 1535 1536 1538 1541 1543 1545 1547 1549 1551 1553 1555 1557 1559 1562 1564 1565 1566 1568 1569 1571 1573 1575 1575 1576 1577 1577 1577 1578 1578 1577 1576 1575 1575 1573
1519 1530 1524 1522 1516 1517 1521 1532 1522 1525 1526 1528 1530 1533 1534 1536 1537 1538 1541 1543 1545 1547 1549 1551 1553 1555 1558 1560 1562 1564 1566 1567 1568 1569 1571 1572 1573 1574 1575 1576 1576 1577 1576 1576 1575 1574 1573 1572 1571
1525 1526 1524 1526 1516 1517 1523 1525 1523 1525 1526 1526 1528 1531 1531 1533 1534 1537 1539 1543 1545 1547 1550 1552 1553 1555 1558 1560 1562 1564 1565 1567 1569 1570 1571 1572 1572 1573 1574 1575 1575 1575 1575 1575 1574 1572 1571 1569 1569
1504 1515 1524 1518 1513 1519 1524 1523 1522 1523 1526 1527 1527 1529 1530 1531 1534 1537 1539 1543 1545 1547 1549 1551 1553 1555 1557 1559 1560 1562 1563 1565 1567 1569 1570 1571 1572 1573 1573 1574 1574 1576 1575 1573 1572 1569 1569 1569 1568
1505 1516 1519 1514 1512 1517 1525 1525 1522 1523 1523 1524 1525 1527 1527 1530 1532 1535 1537 1540 1543 1546 1549 1551 1553 1556 1557 1559 1560 1562 1564 1565 1566 1568 1568 1570 1571 1572 1571 1572 1572 1571 1571 1570 1570 1568 1567 1565 1562
1506 1512 1517 1517 1516 1519 1525 1533 1524 1521 1523 1522 1522 1525 1526 1528 1531 1533 1535 1538 1541 1544 1547 1550 1552 1555 1556 1558 1560 1561 1563 1564 1565 1566 1566 1568 1569 1570 1570 1570 1571 1571 1570 1568 1567 1566 1565 1564 1564
1511 1501 1505 1513 1523 1545 1529 1557 1530 1523 1523 1520 1518 1522 1523 1526 1529 1532 1534 1535 1537 1542 1547 1550 1552 1554 1555 1557 1559 1560 1561 1562 1563 1564 1565 1567 1568 1568 1569 1569 1570 1569 1569 1568 1568 1566 1565 1564 1563
1504 1500 1510 1518 1531 1537 1537 1548 1530 1521 1526 1520 1516 1516 1520 1523 1526 1529 1531 1533 1536 1539 1545 1549 1551 1553 1554 1556 1558 1558 1559 1561 1562 1563 1564 1565 1566 1566 1566 1566 1566 1565 1565 1565 1565 1564 1563 1562 1562
1500 1507 1516 1525 1534 1555 1539 1544 1537 1526 1515 1513 1511 1512 1515 1519 1523 1525 1529 1533 1535 1537 1541 1546 1549 1551 1553 1555 1556 1558 1559 1560 1561 1562 1563 1563 1564 1564 1564 1564 1563 1563 1562 1561 1560 1560 1559 1559 1558
1500 1514 1552 1553 1556 1559 1541 1547 1526 1507 1504 1503 1504 1505 1510 1513 1517 1521 1524 1528 1531 1534 1537 1541 1545 1548 1551 1553 1555 1556 1558 1559 1560 1561 1562 1562 1562 1562 1561 1561 1560 1559 1558 1558 1557 1557 1556 1555 1554
1504 1511 1541 1556 1570 1554 1544 1546 1515 1498 1497 1498 1501 1505 1508 1510 1513 1517 1519 1524 1527 1531 1534 1538 1541 1544 1548 1550 1552 1554 1556 1557 1558 1559 1560 1560 1559 1559 1559 1558 1556 1555 1553 1552 1550 1550 1551 1552 1550
1504 1516 1512 1545 1553 1551 1542 1522 1501 1493 1497 1498 1501 1504 1506 1507 1509 1512 1516 1520 1524 1528 1531 1534 1537 1540 1544 1547 1549 1551 1553 1554 1555 1557 1556 1556 1556 1556 1555 1554 1553 1551 1550 1548 1545 1543 1543 1544 1545
1490 1500 1523 1532 1549 1546 1544 1533 1524 1501 1498 1498 1501 1503 1503 1505 1507 1511 1515 1518 1523 1526 1529 1532 1534 1537 1541 1544 1546 1549 1550 1551 1552 1552 1552 1551 1552 1552 1551 1549 1548 1548 1547 1545 1543 1540 1537 1537 1540
1500 1506 1512 1520 1532 1550 1558 1537 1502 1496 1494 1496 1497 1500 1502 1504 1507 1511 1514 1518 1522 1525 1528 1530 1533 1536 1539 1542 1545 1546 1548 1549 1550 1549 1547 1547 1547 1546 1545 1543 1544 1543 1542 1540 1537 1534 1532 1533 1533
1482 1493 1508 1517 1531 1542 1538 1528 1489 1489 1489 1492 1496 1499 1502 1505 1508 1512 1515 1519 1522 1524 1527 1529 1532 1535 1537 1540 1543 1544 1545 1546 1546 1545 1544 1543 1542 1542 1541 1539 1538 1538 1536 1534 1533 1529 1526 1527 1530